Regional Weather Roundup
Issued by NWS

Home | Current Version | Previous Version | Text Only | Print | Product List | Glossary On
Versions: 1 2 3 4 5 6 7 8 9 10 11 12 13 14 15 16 17 18 19 20 21 22 23 24 25 26 27 28 29 30 31 32 33 34 35 36 37 38 39 40 41 42 43 44 45 46 47 48 49 50
000
ASUS45 KSLC 242310
RWRUT

UTAH REGIONAL WEATHER ROUNDUP
NATIONAL WEATHER SERVICE SALT LAKE CITY UT
500 PM MDT MON JUL 24 2017

UTZ001>011-023>025-250000-

NORTHERN UTAH

CITY           SKY/WX    TMP DP  RH WIND       PRES   REMARKS
BRIGHAM CITY   SUNNY     94  34  12 NW5       29.93F
DUGWAY         PTSUNNY   96  37  13 W6        29.89F HX  91
HILL AFB       SUNNY     93  42  17 N5        29.97F
LOGAN          SUNNY     95  41  15 NW7       29.94F HX  91
OGDEN          SUNNY     94  40  15 W8        29.92F HX  90
SALT LAKE CITY PTSUNNY   97  43  15 N7        29.90F HX  93
TOOELE VALLEY  SUNNY     95  50  21 N13       29.91F HX  92
WENDOVER       MOSUNNY   95  43  16 SE10      29.90F HX  91
HEBER CITY     SUNNY     93  37  14 W7        30.02F
WEST JORDAN    SUNNY     94  59  30 CALM      29.95F HX  93

$$

UTZ011>015-024>027-250000-

CENTRAL/NORTHEAST UTAH

CITY           SKY/WX    TMP DP  RH WIND       PRES   REMARKS
PROVO AIRPORT  SUNNY     94  46  19 W5        29.94F HX  90
MOAB/CANYONLAN CLOUDY    92  49  22 SE3       29.93F
DELTA          SUNNY     91  37  15 SW10G16   29.94F
PRICE          PTSUNNY   82  52  35 S26G33    30.07R
ROOSEVELT      DRIZZLE   81  45  28 SW15G25   30.05S
VERNAL         MOSUNNY   92  41  17 SW10      30.01F

$$

UTZ013>016-019>022-027-250000-

SOUTHERN UTAH

CITY           SKY/WX    TMP DP  RH WIND       PRES   REMARKS
BRYCE CANYON   TSTM      60  56  86 N13       30.28S
CEDAR CITY     PTSUNNY   78  51  38 S12       30.07F
MILFORD        MOSUNNY   91  49  23 S22G28    29.97S
ST GEORGE      CLEAR     86  64  47 S20       29.89R
HANKSVILLE     CLOUDY    91  50  24 S16G22    29.97S
BLANDING       SUNNY     85  48  28 SE3       30.17F

$$

REGIONAL REPORTS     COLORADO/ARIZONA

CITY           SKY/WX    TMP DP  RH WIND       PRES   REMARKS
CRAIG, CO      MOSUNNY   90  35  14 W3        30.08F
GRAND JUNCTION PTSUNNY   93  48  21 W9        29.97F
RIFLE, CO      PTSUNNY   92  33  12 N3        30.02F
MONTROSE, CO   PTSUNNY   89  47  23 SW7       30.06F
CORTEZ, CO     MOSUNNY   89  48  24 VRB7      30.09F
COLORADO CITY    N/A     82  59  44 SW14      30.07F
PAGE, AZ       PTSUNNY   87  58  37 SW8       29.98F
GRAND CANYON   CLOUDY    75  53  46 S8        30.20F
KINGMAN, AZ    PTSUNNY   82  63  52 N8        29.98F
FLAGSTAFF, AZ  CLOUDY    69  58  67 VRB3      30.23F

$$

REGIONAL REPORTS    NEVADA/IDAHO/WYOMING

CITY           SKY/WX    TMP DP  RH WIND       PRES   REMARKS
LAS VEGAS, NV  CLOUDY    94  60  32 SW7       29.83F HX  94
ELY, NY        CLOUDY    74  48  39 S24       30.11F
ELKO, NV       PTSUNNY   85  46  25 SW12      29.97S
POCATELLO, ID  PTSUNNY   93  28  10 S8        29.97F
BURLEY, ID     CLOUDY    88  45  22 S15       29.94F
FORT BRIDGER,  CLOUDY    84  36  17 E7        30.18F
EVANSTON, WY   MOSUNNY   87  36  16 SW10G18   30.16F
ROCK SPRINGS,  MOSUNNY   86  34  15 SW13G21   30.14F
KEMMERER, WY     N/A     84  30  14 W7        30.18F

$$



USA.gov is the U.S. government's official web portal to all federal, state and local government web resources and services.